Weather History for KRGK - January, 2013

Change the Weather History Date:

Sunday, January 6, 2013

  Actual Average Record
Temperature  
Mean Temperature 17 °F -  
Max Temperature 24 °F 24 °F 46 °F (2012)
Min Temperature 10 °F 9 °F -20 °F (2014)
Degree Days  
Heating Degree Days 48    
Moisture  
Dew Point 11 °F    
Average Humidity 76    
Maximum Humidity 93    
Minimum Humidity 50    
Precipitation  
Precipitation 0.00 in - - ()
Sea Level Pressure  
Sea Level Pressure 30.15 in    
Wind  
Wind Speed 6 mph (West)    
Max Wind Speed 10 mph    
Max Gust Speed -    
Visibility 9 miles    
Events      
Averages and records for this station are not official NWS values.
T = Trace of Precipitation, MM = Missing Value Source: NWS Daily Summary

Daily Weather History Graph

Daily Weather History Graph

Search for Another Location

Airport or City:

Trip Planner

Search our weather history database for the weather conditions in past years. The results will help you decide how hot, cold, wet, or windy it might be!

Date:

Astronomy

Jan. 06, 2013 Rise Set
Actual Time 7:46 AM CST 4:45 PM CST
Civil Twilight 7:13 AM CST 5:18 PM CST
Nautical Twilight 6:36 AM CST 5:55 PM CST
Astronomical Twilight 6:01 AM CST 6:30 PM CST
Moon 1:55 AM CST (1/6) 12:17 PM CST (1/6)
Length of Visible Light 10h 05m
Length of Day
8h 59m
Waning Crescent, 33% of the Moon is Illuminated
Jan 6
Waning Crescent
Jan 11
New
Jan 18
First Quarter
Jan 26
Full
Feb 3
Last Quarter

Hourly Weather History & Observations

Time (CST) Temp. Windchill Dew Point Humidity Pressure Visibility Wind Dir Wind Speed Gust Speed Precip Events Conditions
12:15 AM 19.4 °F 10.4 °F 14.0 °F 80% 29.99 in 7.0 mi WNW 6.9 mph - N/A   Overcast
12:35 AM 19.4 °F 9.5 °F 14.0 °F 80% 30.00 in 7.0 mi WNW 8.1 mph - N/A   Overcast
12:55 AM 19.4 °F 10.4 °F 15.8 °F 86% 30.01 in 7.0 mi WNW 6.9 mph - N/A   Overcast
1:15 AM 19.4 °F 8.6 °F 15.8 °F 86% 30.01 in 7.0 mi WNW 9.2 mph - N/A   Overcast
1:35 AM 19.4 °F 10.4 °F 15.8 °F 86% 30.02 in 7.0 mi West 6.9 mph - N/A   Overcast
1:55 AM 19.4 °F 10.4 °F 15.8 °F 86% 30.03 in 7.0 mi WNW 6.9 mph - N/A   Overcast
2:15 AM 19.4 °F 10.4 °F 15.8 °F 86% 30.04 in 7.0 mi WNW 6.9 mph - N/A   Overcast
2:35 AM 19.4 °F 10.4 °F 15.8 °F 86% 30.04 in 7.0 mi WNW 6.9 mph - N/A   Overcast
2:55 AM 19.4 °F 11.5 °F 15.8 °F 86% 30.05 in 7.0 mi WNW 5.8 mph - N/A   Mostly Cloudy
3:15 AM 17.6 °F 12.3 °F 14.0 °F 86% 30.05 in 7.0 mi WNW 3.5 mph - N/A   Mostly Cloudy
3:35 AM 17.6 °F 9.3 °F 15.8 °F 93% 30.06 in 7.0 mi WNW 5.8 mph - N/A   Overcast
3:55 AM 17.6 °F 6.4 °F 14.0 °F 86% 30.06 in 7.0 mi WNW 9.2 mph - N/A   Overcast
4:15 AM 17.6 °F 9.3 °F 12.2 °F 79% 30.07 in 7.0 mi WNW 5.8 mph - N/A   Overcast
4:35 AM 17.6 °F 7.3 °F 12.2 °F 79% 30.08 in 7.0 mi WNW 8.1 mph - N/A   Mostly Cloudy
4:55 AM 15.8 °F 5.1 °F 12.2 °F 86% 30.08 in 7.0 mi WNW 8.1 mph - N/A   Scattered Clouds
5:35 AM 12.2 °F 4.3 °F 10.4 °F 92% 30.10 in 7.0 mi West 4.6 mph - N/A   Overcast
5:55 AM 12.2 °F - 10.4 °F 92% 30.10 in 7.0 mi Calm Calm - N/A   Overcast
6:15 AM 14.0 °F 8.2 °F 10.4 °F 86% 30.11 in 7.0 mi West 3.5 mph - N/A   Overcast
6:35 AM 12.2 °F 6.1 °F 10.4 °F 92% 30.12 in 7.0 mi WNW 3.5 mph - N/A   Scattered Clouds
6:55 AM 10.4 °F - 8.6 °F 92% 30.14 in 5.0 mi Calm Calm - N/A   Clear
7:15 AM 10.4 °F 2.2 °F 8.6 °F 92% 30.15 in 7.0 mi WNW 4.6 mph - N/A   Clear
7:35 AM 12.2 °F 1.7 °F 10.4 °F 92% 30.16 in 7.0 mi WNW 6.9 mph - N/A   Mostly Cloudy
7:55 AM 14.0 °F 3.9 °F 12.2 °F 93% 30.16 in 7.0 mi West 6.9 mph - N/A   Overcast
8:35 AM 15.8 °F 4.2 °F 12.2 °F 86% 30.18 in 7.0 mi WNW 9.2 mph - N/A   Mostly Cloudy
8:55 AM 14.0 °F 2.9 °F 12.2 °F 93% 30.18 in 7.0 mi WNW 8.1 mph - N/A   Scattered Clouds
9:15 AM 15.8 °F 4.2 °F 12.2 °F 86% 30.19 in 10.0 mi WNW 9.2 mph - N/A   Clear
9:35 AM 15.8 °F 3.4 °F 10.4 °F 79% 30.21 in 10.0 mi WNW 10.4 mph - N/A   Clear
9:55 AM 17.6 °F 9.3 °F 10.4 °F 73% 30.21 in 10.0 mi West 5.8 mph - N/A   Clear
10:15 AM 17.6 °F 9.3 °F 10.4 °F 73% 30.21 in 10.0 mi West 5.8 mph - N/A   Clear
10:35 AM 17.6 °F 9.3 °F 10.4 °F 73% 30.22 in 10.0 mi West 5.8 mph - N/A   Clear
10:55 AM 19.4 °F 10.4 °F 10.4 °F 68% 30.22 in 10.0 mi West 6.9 mph - N/A   Clear
11:35 AM 19.4 °F 12.8 °F 8.6 °F 63% 30.22 in 10.0 mi West 4.6 mph - N/A   Clear
11:55 AM 19.4 °F 10.4 °F 8.6 °F 63% 30.21 in 10.0 mi West 6.9 mph - N/A   Clear
12:15 PM 19.4 °F 11.5 °F 8.6 °F 63% 30.22 in 10.0 mi West 5.8 mph - N/A   Clear
12:35 PM 21.2 °F 12.6 °F 8.6 °F 58% 30.21 in 10.0 mi West 6.9 mph - N/A   Clear
12:55 PM 21.2 °F 13.6 °F 8.6 °F 58% 30.21 in 10.0 mi West 5.8 mph - N/A   Clear
1:15 PM 21.2 °F 12.6 °F 8.6 °F 58% 30.21 in 10.0 mi WNW 6.9 mph - N/A   Clear
1:35 PM 21.2 °F 14.9 °F 8.6 °F 58% 30.21 in 10.0 mi WNW 4.6 mph - N/A   Clear
1:54 PM 21.2 °F 13.6 °F 8.6 °F 58% 30.21 in 10.0 mi West 5.8 mph - N/A   Clear
2:15 PM 23.0 °F 17.0 °F 8.6 °F 54% 30.21 in 10.0 mi West 4.6 mph - N/A   Clear
2:35 PM 23.0 °F - 8.6 °F 54% 30.21 in 10.0 mi Calm Calm - N/A   Clear
2:55 PM 23.0 °F 18.4 °F 8.6 °F 54% 30.22 in 10.0 mi WNW 3.5 mph - N/A   Clear
3:15 PM 24.8 °F 20.5 °F 8.6 °F 50% 30.22 in 10.0 mi WNW 3.5 mph - N/A   Clear
3:35 PM 23.0 °F 18.4 °F 10.4 °F 59% 30.22 in 10.0 mi West 3.5 mph - N/A   Clear
3:55 PM 23.0 °F 18.4 °F 10.4 °F 59% 30.23 in 10.0 mi WNW 3.5 mph - N/A   Clear
4:15 PM 23.0 °F - 10.4 °F 59% 30.21 in 10.0 mi Calm Calm - N/A   Clear
4:35 PM 21.2 °F - 8.6 °F 58% 30.21 in 10.0 mi Calm Calm - N/A   Clear
4:55 PM 19.4 °F 14.3 °F 8.6 °F 63% 30.22 in 10.0 mi SSW 3.5 mph - N/A   Clear
5:15 PM 17.6 °F 10.7 °F 8.6 °F 68% 30.22 in 10.0 mi SSW 4.6 mph - N/A   Clear
5:35 PM 17.6 °F 12.3 °F 8.6 °F 68% 30.22 in 10.0 mi South 3.5 mph - N/A   Clear
5:55 PM 17.6 °F 10.7 °F 8.6 °F 68% 30.22 in 10.0 mi SSW 4.6 mph - N/A   Clear
6:15 PM 15.8 °F 7.2 °F 8.6 °F 73% 30.22 in 10.0 mi SW 5.8 mph - N/A   Clear
6:35 PM 17.6 °F - 10.4 °F 73% 30.22 in 10.0 mi Calm Calm - N/A   Clear
6:55 PM 15.8 °F 10.2 °F 8.6 °F 73% 30.21 in 10.0 mi South 3.5 mph - N/A   Clear
7:14 PM 15.8 °F - 10.4 °F 79% 30.21 in 10.0 mi Calm Calm - N/A   Clear
7:35 PM 12.2 °F - 8.6 °F 85% 30.21 in 10.0 mi Calm Calm - N/A   Clear
7:55 PM 10.4 °F 2.2 °F 8.6 °F 92% 30.20 in 10.0 mi SE 4.6 mph - N/A   Clear
8:15 PM 10.4 °F 4.0 °F 6.8 °F 85% 30.20 in 10.0 mi SE 3.5 mph - N/A   Clear
8:35 PM 12.2 °F 6.1 °F 8.6 °F 85% 30.19 in 10.0 mi SE 3.5 mph - N/A   Clear
9:35 PM 12.2 °F 2.9 °F 8.6 °F 85% 30.16 in 10.0 mi SE 5.8 mph - N/A   Clear
9:54 PM 14.0 °F 3.9 °F 8.6 °F 79% 30.15 in 10.0 mi SE 6.9 mph - N/A   Clear
10:15 PM 15.8 °F 5.1 °F 10.4 °F 79% 30.14 in 10.0 mi SE 8.1 mph - N/A   Clear
10:35 PM 15.8 °F 6.1 °F 10.4 °F 79% 30.14 in 10.0 mi SE 6.9 mph - N/A   Clear
10:55 PM 15.8 °F 5.1 °F 10.4 °F 79% 30.13 in 10.0 mi SE 8.1 mph - N/A   Clear
11:35 PM 15.8 °F 7.2 °F 10.4 °F 79% 30.12 in 10.0 mi SE 5.8 mph - N/A   Clear
11:55 PM 15.8 °F 5.1 °F 10.4 °F 79% 30.11 in 10.0 mi SE 8.1 mph - N/A   Clear